RH
57 59 60 61 61 60 60 60 60 59 57 56 53 50 48 46 45 44 42 40 38 38 40 42 42 41 40 38 34 30 28 28 28 27 26 26 27 28 30 32 33 29 26 25 25 24 26 32 38 43 46 49 55 61 69 77 81 82 82 83 85 89 90 87 86 88 91 90 86 84 82 76 72 68 64 60 57 55 51 47 42 39 36 33 30
61 62 62 62 62 62 63 62 59 55 52 50 47 45 45 45 45 44 44 42 39 39 40 42 42 41 39 36 34 32 31 31 30 30 31 31 28 27 26 28 29 27 27 28 27 25 24 27 33 40 44 47 52 57 62 69 77 82 84 85 85 86 88 88 87 88 92 92 87 84 85 84 79 73 67 63 59 57 55 51 45 41 38 36 35
63 64 65 65 66 65 63 59 55 51 49 49 50 50 50 48 44 41 39 37 36 36 37 39 39 39 40 39 38 40 41 41 40 40 43 45 41 36 31 28 28 28 30 34 34 30 27 26 28 32 38 44 49 54 60 64 70 78 85 88 89 88 88 90 91 89 89 92 93 91 87 84 83 76 68 63 59 58 57 55 51 45 41 40 38
67 68 68 69 67 62 57 54 52 52 52 52 52 48 44 42 39 37 36 37 39 39 39 40 39 41 45 45 43 44 46 47 47 45 45 47 48 48 42 35 34 33 32 37 39 36 33 30 28 29 31 37 43 48 56 62 67 72 80 87 91 92 90 90 93 91 90 93 96 95 88 84 84 75 67 64 62 63 61 57 55 51 47 44 40
70 70 69 66 62 57 54 53 53 52 51 49 46 44 43 41 37 35 36 40 44 42 38 39 41 43 46 45 43 44 46 47 49 48 45 43 44 46 45 44 45 42 36 36 38 38 38 35 34 34 33 35 39 42 47 55 63 67 73 82 89 95 95 92 92 92 93 95 96 95 89 84 79 69 67 69 67 66 65 61 60 59 56 51 44
71 68 65 61 57 55 54 54 52 49 47 44 43 43 42 38 33 33 37 44 47 43 40 41 44 48 52 53 53 53 53 52 53 54 51 48 47 46 46 49 52 48 42 39 37 37 38 38 38 38 36 37 39 40 41 45 54 60 66 75 83 90 95 97 95 94 95 98 97 95 89 82 77 71 72 73 69 66 67 67 65 64 64 59 49
67 64 62 60 57 56 55 53 50 48 46 41 37 35 33 31 33 38 44 50 52 49 46 44 46 52 59 65 67 67 66 63 63 62 59 56 56 57 57 58 57 53 48 45 42 39 38 39 40 39 37 37 39 43 42 41 46 52 57 66 75 83 90 95 97 96 97 99 99 97 93 87 81 75 72 71 70 67 65 67 68 67 68 65 57
63 62 60 60 59 57 56 54 52 48 41 34 30 30 29 29 36 43 47 51 54 53 52 50 50 54 62 68 70 71 72 70 68 65 63 63 65 68 70 67 63 58 53 48 45 45 44 42 41 41 41 39 40 44 46 44 44 47 52 57 65 76 86 91 93 96 97 98 99 99 98 96 89 80 74 72 72 68 64 63 66 68 68 66 63
62 62 61 60 59 57 56 54 50 41 33 28 27 29 30 30 39 47 48 50 53 55 56 56 56 56 60 65 65 67 71 72 69 64 63 64 67 70 73 72 68 65 61 54 49 47 48 48 47 45 45 45 44 44 47 48 46 45 49 52 56 68 83 91 92 94 96 96 97 99 99 100 98 89 78 73 72 70 65 60 59 63 65 62 61
63 64 61 58 57 57 54 47 39 32 28 28 28 32 36 37 44 48 48 50 52 57 64 64 61 59 58 60 60 60 65 68 66 64 62 63 63 64 68 70 71 69 67 63 57 51 49 51 53 51 49 50 49 47 45 46 46 44 46 50 54 62 75 89 96 97 98 97 97 98 98 99 100 95 83 74 71 69 66 61 58 61 63 61 63
63 61 58 56 55 51 45 36 30 29 30 32 34 39 44 47 51 53 54 55 54 62 73 72 66 62 58 58 59 59 63 67 66 64 64 64 62 62 65 67 70 70 68 67 64 59 55 54 56 56 54 53 51 48 45 43 44 45 48 51 55 61 68 80 93 99 100 100 99 99 99 99 99 98 89 79 72 69 68 65 61 60 62 64 69
60 58 54 51 45 38 32 29 29 34 37 37 38 42 47 52 57 60 60 60 60 68 77 76 71 67 63 62 63 63 67 71 70 68 69 70 68 66 65 66 68 70 70 70 69 66 61 57 58 59 59 58 54 51 50 47 45 46 49 50 54 62 68 72 82 93 99 100 100 100 100 99 99 99 96 89 80 72 70 70 65 63 65 68 73
61 57 51 44 36 29 27 29 32 37 39 39 41 45 52 57 61 63 62 64 69 74 76 76 73 72 73 74 74 74 75 75 74 74 74 76 75 71 67 67 69 70 70 71 70 69 67 64 62 61 60 60 59 58 57 53 50 49 50 52 54 60 69 72 74 82 93 98 100 100 100 100 100 99 98 96 87 77 73 73 69 67 67 70 74
59 53 47 38 30 26 28 31 33 34 37 40 45 50 55 58 58 61 63 68 73 73 73 75 73 73 78 83 85 85 83 80 77 77 77 78 78 75 71 71 72 71 69 70 70 70 70 69 67 64 63 63 62 62 60 55 53 52 52 55 57 56 61 69 74 77 83 91 97 99 99 100 100 99 98 97 92 84 78 76 74 71 69 71 74
53 47 40 32 26 28 34 35 33 34 37 42 48 53 56 55 56 59 62 66 69 69 69 70 69 71 77 84 88 87 84 82 80 78 78 78 78 77 75 74 73 71 68 67 67 68 67 68 69 68 67 67 66 64 62 59 56 55 54 56 56 54 55 61 70 76 79 85 92 97 99 100 100 100 100 98 94 89 83 81 80 79 75 72 73
48 41 34 28 25 30 38 38 34 35 39 44 51 57 59 57 57 59 62 65 67 68 69 70 71 72 77 84 89 87 82 80 80 78 77 76 77 78 79 78 75 72 68 65 65 65 65 65 68 70 69 70 73 73 70 66 62 58 56 55 54 54 55 56 61 69 76 81 86 92 98 100 99 99 100 100 97 93 88 84 81 79 77 75 74
43 37 31 27 26 33 40 38 35 37 41 45 51 58 62 60 59 61 64 65 68 71 71 73 73 73 77 85 89 86 83 81 79 77 75 73 75 77 79 79 77 74 70 67 66 66 65 64 65 67 69 71 75 79 78 73 69 65 60 57 55 54 56 57 59 63 69 76 81 86 95 100 100 100 100 100 100 98 95 90 84 79 77 77 76
40 35 29 27 31 40 43 38 36 38 43 46 52 59 62 63 63 62 62 65 71 76 78 77 77 76 78 84 87 84 81 81 78 74 71 69 72 75 77 77 76 74 71 69 70 69 67 65 64 65 68 70 72 77 81 77 74 71 66 62 59 56 56 56 58 59 61 69 76 81 90 97 100 100 100 100 100 100 99 97 93 88 84 82 80
40 35 31 32 39 45 43 39 38 40 44 48 54 60 61 63 65 64 62 65 71 78 81 81 81 80 79 82 83 81 79 78 76 74 71 69 70 74 76 74 72 72 72 72 76 79 75 70 67 66 69 70 70 75 83 83 81 76 70 67 64 62 58 54 54 57 59 65 72 76 83 91 97 100 100 100 100 100 100 99 98 96 93 89 87
41 36 34 37 43 45 43 42 43 43 45 51 59 63 63 64 66 66 64 65 71 77 79 79 79 80 80 79 79 78 76 75 75 74 72 71 71 72 72 69 67 71 77 79 82 87 85 79 74 71 71 71 72 77 84 86 86 83 77 71 68 68 63 57 56 59 61 64 68 72 77 83 91 98 100 101 101 100 100 100 100 98 97 95 93
42 38 38 42 45 45 44 46 49 49 49 56 64 66 65 66 67 68 67 67 72 77 77 76 77 77 77 76 76 77 76 74 74 73 72 71 70 69 68 66 68 75 82 84 85 90 90 85 81 78 75 75 75 78 85 89 89 87 83 78 74 72 68 63 60 61 62 62 63 68 73 77 83 91 97 99 100 101 100 100 100 98 95 94 94
42 41 41 45 46 46 47 49 51 53 54 59 66 68 67 68 68 68 69 70 75 79 77 76 76 76 76 77 78 77 74 73 72 71 69 68 68 68 69 71 76 79 83 86 88 90 91 87 84 83 82 82 81 81 86 91 90 89 89 86 82 79 74 66 62 61 62 62 62 66 71 75 80 85 91 95 98 100 101 100 100 99 96 94 93
41 42 44 47 49 49 50 50 51 54 55 59 65 69 70 69 68 67 67 70 77 81 79 76 76 77 79 79 78 74 71 68 68 68 68 69 71 72 73 78 82 84 84 86 87 89 90 88 85 85 87 88 89 89 90 91 90 91 92 90 87 84 78 70 65 60 60 61 64 68 71 75 80 84 87 91 93 96 99 100 101 100 98 96 95
42 44 47 49 51 51 51 52 52 54 56 57 62 70 71 68 67 67 67 72 80 81 78 78 80 80 78 75 73 71 70 68 67 68 68 70 75 76 76 79 83 84 83 83 85 87 88 88 86 86 88 91 93 94 94 93 91 92 92 91 89 86 81 76 71 65 62 63 66 70 74 78 82 83 85 87 90 92 95 97 100 101 99 97 96
43 46 48 51 53 53 53 54 54 55 56 56 60 67 68 65 65 65 68 75 80 79 79 82 81 78 76 76 74 73 73 70 67 66 64 66 73 76 76 77 79 81 81 79 81 85 87 88 89 88 89 92 94 95 95 95 95 94 93 90 88 85 82 80 76 72 69 69 69 69 73 79 82 82 83 86 89 92 93 94 96 99 100 99 98
45 50 54 56 58 58 57 56 55 55 56 56 60 64 64 63 64 65 70 78 80 79 82 83 80 79 81 81 77 73 71 68 66 65 63 66 70 72 73 75 77 81 82 79 78 82 87 90 92 92 90 91 94 95 95 95 95 94 91 90 88 85 83 81 80 78 75 73 71 69 70 74 77 79 82 86 87 90 94 94 94 95 98 100 100
49 56 59 59 59 60 60 59 57 57 56 56 61 65 64 63 62 65 74 81 81 81 83 82 81 83 85 80 75 72 71 68 67 67 69 74 74 72 73 77 81 84 83 82 81 83 87 91 93 94 93 91 92 94 95 95 94 92 90 90 90 88 85 83 83 82 80 77 74 72 71 71 71 74 80 86 88 89 92 94 94 93 95 99 101
55 61 63 60 58 60 60 58 58 58 57 57 62 66 65 62 61 66 77 83 82 82 83 83 85 87 85 81 77 78 77 75 73 72 74 77 77 76 77 81 84 84 82 83 83 83 86 90 92 93 92 91 91 93 95 95 94 93 91 90 89 88 87 87 87 87 85 82 78 74 72 70 70 72 76 82 86 89 91 93 95 95 95 96 98
62 65 68 67 64 61 57 55 57 58 58 60 64 66 63 61 62 71 82 85 84 84 85 85 88 88 85 82 80 82 82 79 78 77 75 76 78 81 83 85 84 83 81 81 81 82 85 88 91 92 91 90 89 89 93 96 97 95 93 91 90 89 90 93 93 92 90 87 85 82 77 72 72 73 74 76 79 83 88 91 94 95 96 95 95
66 68 72 72 68 63 59 57 57 58 60 63 66 67 63 61 65 78 87 87 86 87 88 88 87 85 84 82 82 84 85 83 83 82 80 79 82 87 90 90 87 86 85 83 81 81 82 83 86 89 90 90 89 88 90 93 96 97 95 93 94 94 96 97 99 98 96 92 91 91 86 81 78 75 74 73 74 77 80 85 89 93 95 95 94
68 70 72 72 67 63 61 60 59 60 62 62 64 65 62 63 74 86 91 90 90 91 90 89 87 86 86 86 85 86 89 91 91 91 89 87 89 94 95 93 91 91 91 89 86 84 83 83 85 88 90 89 89 89 90 90 92 95 96 96 96 97 98 99 101 101 100 98 96 95 92 89 85 80 77 77 76 75 76 79 84 89 91 92 92
72 73 74 70 64 62 63 61 61 62 61 62 64 63 62 70 85 94 94 93 95 94 92 91 91 91 92 92 92 93 96 98 98 98 97 96 96 97 98 97 97 97 97 94 91 89 88 90 91 93 93 91 88 88 89 89 89 91 94 95 96 97 99 100 100 99 100 100 100 98 96 93 89 84 82 81 80 78 78 79 81 83 85 87 87
76 76 72 66 62 63 62 60 62 62 61 63 64 63 69 81 92 96 96 97 97 96 96 95 94 94 96 98 100 100 101 101 101 100 101 100 100 99 100 101 100 98 98 96 95 95 96 97 98 97 96 95 92 90 88 89 89 88 89 91 91 92 94 95 96 96 97 99 101 101 99 96 91 86 83 81 79 78 78 79 79 79 79 80 80
77 72 66 63 62 62 60 61 63 62 63 64 64 69 82 92 96 98 99 98 97 97 97 97 98 98 99 100 101 101 101 101 100 101 101 101 100 100 101 100 99 98 98 99 99 101 101 100 99 98 97 96 93 90 89 90 90 88 88 90 91 90 90 92 92 92 95 99 101 101 100 97 92 87 85 83 81 78 77 77 76 76 75 75 75
73 68 64 60 57 58 61 64 63 60 62 65 69 80 93 97 98 100 100 98 97 97 96 98 99 100 100 100 100 100 100 100 100 101 101 101 101 100 100 99 99 99 100 100 102 102 101 100 99 98 97 96 95 93 91 92 92 91 91 92 92 92 91 92 91 90 92 98 100 100 99 97 92 88 89 90 88 84 82 79 75 73 71 71 71
66 62 58 52 50 55 60 60 57 57 62 71 82 91 97 99 101 101 99 98 97 96 96 98 98 99 99 99 100 100 100 100 100 101 101 101 100 100 100 100 100 100 100 100 101 100 99 98 96 96 96 96 97 96 95 96 98 99 98 97 97 96 95 95 93 91 93 95 96 97 96 94 91 89 90 91 91 90 88 85 80 75 72 70 68
54 52 49 45 46 52 55 53 52 59 70 84 93 95 96 100 102 101 100 98 97 97 98 97 97 98 99 99 99 100 100 100 101 101 101 101 101 101 100 100 100 99 100 100 100 99 98 97 96 97 97 96 97 97 97 98 100 101 100 100 100 99 98 97 94 93 93 94 93 92 90 87 86 84 85 86 86 86 85 84 81 79 76 72 69
42 42 42 43 46 50 50 50 58 72 87 95 95 93 97 102 101 99 100 99 98 99 99 99 99 100 100 100 100 101 101 101 101 101 101 100 100 100 100 100 100 99 99 99 97 96 94 92 91 91 90 90 92 94 95 96 98 100 100 100 99 98 97 97 95 92 90 90 88 84 80 79 78 76 77 79 80 81 81 79 77 76 75 73 70
35 41 43 45 48 50 53 61 77 91 97 96 94 95 100 102 99 97 97 98 99 101 100 101 101 101 101 102 101 101 101 100 100 100 99 99 99 100 99 98 96 93 91 88 84 81 78 76 75 75 75 75 75 76 78 80 82 85 86 86 85 84 82 81 81 80 79 79 78 78 77 76 75 74 75 76 78 81 82 80 77 76 74 71 72
42 46 47 48 53 60 70 84 95 98 96 95 97 99 101 100 98 96 96 98 100 100 101 102 102 101 102 101 100 100 100 99 99 99 99 98 97 94 91 87 83 80 78 75 72 71 70 70 69 68 66 64 63 63 65 66 68 69 70 71 71 71 70 69 69 69 69 68 68 69 71 72 72 73 74 75 78 82 83 80 79 77 73 71 75
49 49 53 61 72 84 93 98 97 96 96 97 99 101 101 99 96 96 97 99 100 100 101 102 101 100 100 100 100 100 99 98 97 94 91 88 85 82 79 76 75 75 75 76 76 77 78 78 77 73 69 67 66 66 67 68 69 71 72 72 73 73 74 74 72 70 69 67 67 68 69 70 71 72 71 71 73 78 82 81 78 73 70 70 73
58 64 75 86 94 98 99 98 97 98 99 99 99 101 101 97 95 96 97 99 101 101 101 101 101 101 100 99 97 94 91 88 84 80 79 78 79 81 82 82 82 82 84 86 87 87 87 86 84 81 78 77 76 77 79 80 80 79 80 80 81 82 83 84 84 83 80 77 77 76 76 77 78 78 77 75 74 75 79 79 76 72 70 71 73
81 88 95 98 97 96 97 99 100 101 100 99 101 102 99 96 96 97 98 100 101 102 101 101 100 97 93 89 86 82 80 79 78 78 81 84 88 92 93 93 94 94 95 94 92 90 89 88 87 86 86 85 84 85 86 86 86 85 85 86 88 90 92 92 93 95 92 87 86 85 83 83 84 82 81 81 79 76 75 76 75 75 74 75 75
97 98 98 96 95 96 99 101 100 100 100 100 101 101 98 96 96 97 98 100 101 101 101 97 91 86 82 79 78 78 79 80 85 90 93 96 98 98 97 98 98 98 97 95 92 90 89 88 87 87 88 88 89 90 90 89 88 87 86 85 87 91 95 95 95 96 93 89 89 89 86 86 85 83 81 81 79 78 79 79 77 76 78 80 80
99 98 97 96 97 99 100 99 99 99 99 100 100 99 97 96 97 97 98 99 100 99 94 88 83 81 80 80 81 82 84 88 92 96 99 100 100 98 97 98 98 98 98 97 95 94 94 92 89 88 89 90 90 91 93 93 92 90 88 87 87 90 96 99 98 95 91 85 83 82 81 80 80 79 79 80 80 80 82 82 81 84 88 89 89
97 96 96 97 100 100 98 97 98 99 100 100 100 98 97 97 98 98 99 99 98 92 84 81 82 84 84 85 86 87 90 92 93 95 98 99 98 97 97 98 98 98 98 98 97 96 97 98 97 95 95 94 92 92 93 94 94 92 92 94 92 89 91 97 96 90 85 80 77 76 77 77 77 77 78 79 80 81 83 86 90 94 96 95 95
94 95 96 98 99 97 95 96 99 100 99 99 98 98 98 98 98 98 99 99 94 84 80 83 87 88 89 89 89 88 89 89 90 93 96 96 95 95 96 96 97 99 98 97 97 97 98 99 100 101 100 99 96 94 93 94 97 95 93 95 95 89 87 88 86 81 77 75 74 73 73 74 74 76 79 81 84 88 92 96 98 99 98 98 99
94 97 98 97 94 92 93 95 97 97 97 97 97 98 99 100 99 98 97 95 87 80 81 87 90 91 91 89 87 88 88 88 90 93 94 93 93 94 95 96 99 100 98 97 97 98 99 99 99 100 100 98 96 96 95 96 97 96 94 95 96 94 90 87 84 80 77 76 77 77 78 80 83 86 89 92 95 98 99 100 101 100 101 101 100
95 97 96 94 92 91 92 93 94 94 94 95 97 99 100 99 97 94 91 87 81 79 82 86 88 87 86 86 87 90 90 90 92 93 93 93 94 93 91 94 99 100 98 97 98 98 100 100 99 97 96 96 96 97 98 97 95 93 95 97 97 96 95 94 92 90 88 88 88 89 90 93 95 97 99 100 100 100 99 99 99 100 100 101 101
94 96 96 94 92 91 92 93 92 91 92 94 96 98 97 95 93 90 87 81 78 79 81 83 83 82 80 82 89 91 91 92 93 94 94 94 95 93 89 90 96 97 96 97 99 98 100 101 99 96 95 96 98 97 96 97 96 95 97 99 99 97 96 96 96 96 95 95 95 96 97 98 99 100 101 101 100 101 100 99 97 98 99 100 100
94 96 96 94 93 92 92 93 92 92 94 95 96 95 93 90 88 88 85 80 77 78 80 79 78 77 76 81 88 90 90 91 92 94 95 94 93 90 88 89 93 93 91 94 98 99 99 99 99 99 98 98 99 98 97 98 100 99 99 100 100 100 99 98 97 97 98 98 98 98 100 100 100 100 100 100 101 100 98 97 97 99 100 101 100